GEFSCGP_prec_meanprecacc_174.txt.gz
Total_Precipitation_Accumulation
0.51 0.68 0.70 0.61 0.65 0.73 0.64 0.58 0.67 0.71 0.61 0.73 0.68 0.51 0.42 0.39 0.36 0.37 0.43 0.44 0.39 0.29 0.18 0.11 0.10 0.13 0.18 0.18 0.17 0.19 0.24 0.31 0.29 0.26 0.33 0.44 0.53 0.67 0.81 0.98 1.05 1.28 1.39 1.29
0.59 0.50 0.37 0.42 0.47 0.57 0.58 0.60 0.64 0.62 0.55 0.63 0.68 0.55 0.43 0.35 0.31 0.31 0.33 0.35 0.33 0.24 0.15 0.10 0.07 0.08 0.09 0.11 0.10 0.12 0.16 0.25 0.32 0.36 0.41 0.53 0.71 0.83 0.93 1.07 1.14 1.25 1.28 1.27
0.43 0.35 0.31 0.36 0.40 0.51 0.52 0.59 0.56 0.58 0.64 0.57 0.63 0.68 0.53 0.38 0.33 0.32 0.31 0.30 0.28 0.19 0.15 0.13 0.10 0.09 0.07 0.07 0.08 0.13 0.20 0.33 0.50 0.66 0.88 1.13 1.41 1.53 1.42 1.27 1.35 1.48 1.56 1.52
0.54 0.37 0.32 0.37 0.39 0.45 0.59 0.40 0.38 0.46 0.66 0.66 0.55 0.71 0.54 0.38 0.37 0.38 0.34 0.28 0.24 0.21 0.18 0.15 0.12 0.11 0.11 0.15 0.22 0.30 0.42 0.58 0.74 0.95 1.17 1.43 1.66 1.83 1.84 1.86 1.90 1.89 1.84 1.74
0.59 0.37 0.33 0.38 0.34 0.36 0.47 0.40 0.38 0.43 0.58 0.56 0.50 0.50 0.42 0.38 0.45 0.47 0.46 0.39 0.34 0.32 0.29 0.26 0.22 0.21 0.22 0.33 0.45 0.55 0.77 0.93 1.07 1.13 1.23 1.45 1.56 1.63 1.74 1.89 1.94 1.93 1.86 1.74
0.47 0.33 0.31 0.33 0.29 0.30 0.40 0.46 0.48 0.54 0.60 0.55 0.39 0.37 0.43 0.40 0.47 0.56 0.53 0.46 0.41 0.37 0.34 0.34 0.36 0.37 0.40 0.62 0.84 0.97 1.07 1.16 1.16 1.14 1.16 1.30 1.44 1.53 1.61 1.74 1.80 1.73 1.60 1.57
0.44 0.38 0.30 0.29 0.34 0.32 0.38 0.54 0.63 0.65 0.58 0.43 0.25 0.30 0.40 0.34 0.33 0.40 0.43 0.41 0.37 0.30 0.28 0.32 0.40 0.52 0.71 0.94 1.16 1.30 1.29 1.19 1.05 1.03 1.09 1.15 1.30 1.46 1.51 1.50 1.51 1.46 1.40 1.35
0.36 0.42 0.28 0.25 0.27 0.29 0.33 0.40 0.56 0.60 0.49 0.34 0.27 0.40 0.46 0.35 0.25 0.22 0.23 0.25 0.30 0.33 0.39 0.40 0.44 0.62 0.90 1.15 1.38 1.65 1.63 1.39 1.16 1.11 1.17 1.19 1.27 1.35 1.34 1.26 1.26 1.27 1.22 1.17
0.27 0.28 0.24 0.24 0.25 0.24 0.29 0.30 0.31 0.46 0.38 0.31 0.27 0.35 0.35 0.24 0.19 0.18 0.21 0.26 0.35 0.40 0.49 0.58 0.67 0.75 0.95 1.17 1.49 1.78 1.83 1.62 1.46 1.37 1.31 1.32 1.23 1.14 1.07 0.98 0.97 1.00 1.01 0.94
0.23 0.27 0.25 0.25 0.28 0.24 0.24 0.25 0.27 0.46 0.50 0.43 0.32 0.34 0.28 0.19 0.15 0.17 0.29 0.35 0.41 0.48 0.50 0.65 0.89 1.09 1.31 1.25 1.39 1.62 1.55 1.49 1.46 1.47 1.46 1.36 1.20 1.07 1.03 0.96 0.93 0.90 0.95 0.86
0.17 0.27 0.30 0.27 0.24 0.20 0.20 0.24 0.25 0.34 0.37 0.47 0.53 0.47 0.29 0.24 0.26 0.31 0.40 0.43 0.48 0.55 0.59 0.72 0.88 1.02 1.19 1.29 1.31 1.35 1.33 1.34 1.30 1.23 1.18 1.06 0.86 0.75 0.76 0.78 0.73 0.68 0.71 0.67
0.13 0.24 0.30 0.24 0.18 0.19 0.23 0.25 0.27 0.43 0.45 0.46 0.64 0.67 0.40 0.38 0.43 0.51 0.59 0.63 0.67 0.68 0.71 0.80 0.87 0.99 1.06 1.06 1.11 1.19 1.12 1.10 1.06 0.95 0.84 0.73 0.57 0.51 0.56 0.57 0.52 0.45 0.48 0.45
0.15 0.26 0.35 0.33 0.28 0.26 0.38 0.43 0.32 0.29 0.43 0.56 0.74 0.74 0.56 0.56 0.63 0.73 0.83 0.84 0.79 0.73 0.70 0.74 0.77 0.86 0.90 0.94 1.01 1.09 1.04 1.04 1.03 0.89 0.72 0.64 0.57 0.54 0.53 0.47 0.40 0.32 0.31 0.35
0.14 0.24 0.25 0.27 0.26 0.27 0.44 0.50 0.38 0.35 0.51 0.55 0.60 0.70 0.73 0.83 0.85 0.87 0.87 0.83 0.72 0.60 0.52 0.47 0.46 0.54 0.59 0.64 0.74 0.83 0.81 0.99 1.14 1.06 0.85 0.73 0.67 0.57 0.47 0.37 0.34 0.29 0.32 0.36
0.13 0.21 0.18 0.11 0.10 0.14 0.26 0.32 0.28 0.30 0.36 0.42 0.46 0.55 0.70 0.81 0.85 0.82 0.73 0.57 0.46 0.38 0.28 0.23 0.23 0.29 0.34 0.43 0.48 0.55 0.68 0.89 0.92 0.75 0.55 0.47 0.44 0.39 0.31 0.25 0.23 0.22 0.22 0.22
0.12 0.17 0.15 0.11 0.07 0.09 0.10 0.09 0.09 0.11 0.14 0.21 0.31 0.45 0.54 0.59 0.58 0.52 0.41 0.28 0.24 0.21 0.15 0.12 0.12 0.15 0.15 0.17 0.24 0.37 0.45 0.50 0.46 0.38 0.30 0.26 0.22 0.19 0.17 0.16 0.15 0.11 0.09 0.09
0.12 0.17 0.22 0.21 0.09 0.09 0.08 0.05 0.07 0.12 0.15 0.21 0.36 0.44 0.39 0.37 0.35 0.33 0.24 0.15 0.13 0.10 0.08 0.06 0.07 0.09 0.08 0.08 0.09 0.10 0.15 0.20 0.18 0.12 0.09 0.09 0.08 0.08 0.07 0.07 0.07 0.07 0.07 0.06
0.11 0.18 0.25 0.24 0.21 0.17 0.06 0.03 0.05 0.09 0.14 0.21 0.30 0.30 0.23 0.20 0.17 0.16 0.11 0.08 0.07 0.06 0.04 0.04 0.04 0.04 0.05 0.06 0.07 0.07 0.07 0.09 0.11 0.08 0.06 0.04 0.05 0.05 0.06 0.07 0.06 0.04 0.03 0.04
0.09 0.18 0.28 0.27 0.30 0.15 0.04 0.03 0.03 0.04 0.06 0.07 0.09 0.10 0.08 0.06 0.06 0.07 0.06 0.05 0.05 0.05 0.04 0.04 0.05 0.05 0.05 0.06 0.07 0.06 0.04 0.05 0.06 0.06 0.07 0.06 0.05 0.05 0.05 0.04 0.03 0.03 0.02 0.04
0.12 0.16 0.25 0.26 0.28 0.19 0.07 0.05 0.04 0.04 0.05 0.03 0.03 0.03 0.02 0.03 0.05 0.05 0.04 0.03 0.04 0.06 0.05 0.06 0.07 0.07 0.06 0.07 0.07 0.06 0.05 0.04 0.04 0.05 0.06 0.08 0.08 0.07 0.07 0.07 0.06 0.04 0.04 0.05
0.14 0.16 0.18 0.23 0.26 0.13 0.06 0.06 0.05 0.06 0.05 0.03 0.02 0.02 0.02 0.03 0.04 0.03 0.03 0.03 0.04 0.07 0.08 0.08 0.08 0.07 0.07 0.07 0.07 0.07 0.05 0.04 0.04 0.06 0.08 0.07 0.07 0.07 0.08 0.09 0.11 0.10 0.08 0.07
0.15 0.16 0.17 0.20 0.24 0.12 0.04 0.05 0.05 0.04 0.03 0.02 0.02 0.02 0.02 0.03 0.03 0.03 0.03 0.03 0.04 0.06 0.08 0.08 0.08 0.07 0.07 0.07 0.07 0.06 0.05 0.06 0.06 0.06 0.07 0.07 0.06 0.07 0.08 0.11 0.10 0.08 0.07 0.06
0.11 0.12 0.14 0.14 0.11 0.06 0.05 0.06 0.05 0.03 0.03 0.02 0.01 0.02 0.02 0.02 0.03 0.04 0.04 0.03 0.03 0.05 0.06 0.06 0.06 0.07 0.07 0.08 0.08 0.09 0.08 0.09 0.07 0.05 0.06 0.08 0.08 0.09 0.09 0.09 0.08 0.07 0.06 0.05
0.10 0.08 0.10 0.11 0.06 0.05 0.06 0.05 0.04 0.03 0.02 0.01 0.01 0.01 0.01 0.02 0.03 0.03 0.03 0.03 0.04 0.05 0.06 0.06 0.07 0.08 0.09 0.10 0.09 0.11 0.11 0.08 0.07 0.05 0.06 0.08 0.09 0.10 0.11 0.09 0.08 0.07 0.06 0.06
0.12 0.10 0.10 0.09 0.07 0.06 0.06 0.05 0.03 0.02 0.02 0.02 0.01 0.01 0.01 0.02 0.02 0.03 0.03 0.04 0.04 0.04 0.04 0.04 0.05 0.06 0.08 0.09 0.08 0.09 0.08 0.07 0.06 0.06 0.07 0.08 0.08 0.09 0.11 0.10 0.09 0.08 0.07 0.07
0.12 0.11 0.10 0.10 0.09 0.08 0.07 0.05 0.03 0.02 0.02 0.03 0.02 0.02 0.02 0.02 0.02 0.03 0.04 0.05 0.05 0.04 0.04 0.03 0.05 0.06 0.06 0.07 0.07 0.07 0.07 0.08 0.07 0.06 0.06 0.08 0.08 0.08 0.09 0.11 0.11 0.10 0.09 0.09

GEFSCGP_prec_meanprecacc_180.txt.gz
Total_Precipitation_Accumulation
0.51 0.69 0.71 0.62 0.66 0.74 0.65 0.60 0.69 0.72 0.62 0.74 0.69 0.52 0.42 0.39 0.36 0.37 0.43 0.44 0.39 0.29 0.18 0.11 0.10 0.13 0.18 0.18 0.17 0.19 0.24 0.31 0.30 0.26 0.33 0.44 0.53 0.67 0.81 0.98 1.05 1.28 1.39 1.29
0.59 0.50 0.38 0.43 0.48 0.58 0.60 0.62 0.65 0.63 0.56 0.64 0.70 0.56 0.43 0.35 0.31 0.31 0.33 0.35 0.33 0.24 0.15 0.10 0.07 0.08 0.09 0.11 0.10 0.12 0.16 0.25 0.32 0.36 0.41 0.53 0.71 0.83 0.93 1.07 1.14 1.25 1.28 1.27
0.43 0.36 0.31 0.36 0.41 0.52 0.53 0.61 0.57 0.59 0.65 0.58 0.66 0.71 0.54 0.38 0.33 0.32 0.31 0.31 0.28 0.19 0.16 0.13 0.10 0.09 0.07 0.08 0.08 0.13 0.21 0.34 0.50 0.66 0.88 1.13 1.41 1.53 1.42 1.27 1.35 1.48 1.56 1.53
0.54 0.37 0.32 0.37 0.40 0.46 0.60 0.41 0.39 0.47 0.68 0.68 0.57 0.73 0.55 0.38 0.37 0.38 0.34 0.28 0.24 0.21 0.19 0.15 0.12 0.11 0.11 0.15 0.22 0.31 0.42 0.58 0.74 0.95 1.17 1.43 1.67 1.83 1.84 1.86 1.91 1.89 1.84 1.74
0.59 0.37 0.34 0.39 0.35 0.37 0.48 0.41 0.38 0.44 0.59 0.56 0.51 0.51 0.44 0.39 0.46 0.48 0.46 0.39 0.34 0.32 0.29 0.27 0.23 0.21 0.22 0.33 0.45 0.56 0.77 0.93 1.07 1.13 1.23 1.45 1.56 1.63 1.74 1.89 1.94 1.94 1.86 1.75
0.47 0.33 0.32 0.33 0.29 0.31 0.40 0.47 0.50 0.55 0.61 0.55 0.39 0.38 0.44 0.41 0.48 0.56 0.53 0.46 0.41 0.37 0.34 0.35 0.37 0.37 0.41 0.62 0.84 0.98 1.08 1.17 1.16 1.14 1.16 1.30 1.44 1.53 1.61 1.74 1.80 1.74 1.61 1.57
0.45 0.38 0.30 0.29 0.34 0.32 0.39 0.55 0.64 0.66 0.59 0.43 0.25 0.30 0.40 0.35 0.33 0.40 0.43 0.41 0.37 0.30 0.28 0.32 0.40 0.53 0.71 0.95 1.16 1.30 1.30 1.19 1.05 1.03 1.09 1.15 1.30 1.46 1.51 1.51 1.51 1.47 1.40 1.35
0.36 0.42 0.28 0.25 0.27 0.29 0.33 0.40 0.56 0.61 0.49 0.35 0.28 0.40 0.46 0.35 0.26 0.23 0.23 0.26 0.30 0.33 0.39 0.40 0.44 0.63 0.91 1.16 1.39 1.66 1.64 1.40 1.17 1.11 1.17 1.19 1.27 1.35 1.34 1.26 1.27 1.27 1.23 1.17
0.27 0.28 0.24 0.25 0.25 0.25 0.30 0.30 0.31 0.46 0.38 0.31 0.27 0.35 0.35 0.24 0.19 0.18 0.22 0.26 0.35 0.40 0.49 0.58 0.67 0.76 0.96 1.17 1.50 1.78 1.83 1.63 1.46 1.37 1.31 1.32 1.23 1.15 1.07 0.98 0.97 1.00 1.01 0.94
0.24 0.27 0.26 0.25 0.28 0.25 0.24 0.26 0.28 0.47 0.51 0.43 0.33 0.35 0.29 0.19 0.15 0.18 0.29 0.35 0.41 0.48 0.50 0.65 0.90 1.10 1.31 1.26 1.40 1.63 1.56 1.50 1.46 1.48 1.46 1.36 1.20 1.07 1.03 0.96 0.94 0.90 0.95 0.87
0.17 0.27 0.31 0.28 0.25 0.21 0.21 0.24 0.26 0.35 0.38 0.48 0.53 0.47 0.29 0.24 0.26 0.31 0.40 0.43 0.49 0.56 0.59 0.72 0.88 1.03 1.19 1.29 1.31 1.35 1.34 1.35 1.30 1.23 1.18 1.06 0.86 0.75 0.76 0.78 0.74 0.68 0.72 0.67
0.14 0.24 0.31 0.25 0.18 0.20 0.24 0.26 0.27 0.43 0.46 0.46 0.64 0.67 0.40 0.38 0.43 0.51 0.59 0.63 0.67 0.68 0.71 0.81 0.87 1.00 1.07 1.07 1.11 1.19 1.12 1.11 1.06 0.95 0.85 0.73 0.57 0.52 0.56 0.58 0.53 0.45 0.48 0.45
0.16 0.27 0.36 0.34 0.28 0.26 0.39 0.43 0.33 0.30 0.43 0.56 0.74 0.75 0.56 0.56 0.63 0.73 0.83 0.84 0.79 0.73 0.71 0.75 0.78 0.86 0.91 0.95 1.01 1.09 1.04 1.04 1.03 0.89 0.72 0.65 0.57 0.54 0.53 0.47 0.40 0.32 0.32 0.35
0.15 0.25 0.26 0.27 0.26 0.27 0.44 0.51 0.39 0.36 0.52 0.56 0.60 0.70 0.73 0.83 0.85 0.87 0.87 0.83 0.72 0.61 0.52 0.47 0.46 0.54 0.59 0.64 0.74 0.84 0.81 0.99 1.14 1.06 0.85 0.73 0.67 0.57 0.47 0.38 0.34 0.29 0.32 0.37
0.14 0.22 0.18 0.11 0.10 0.14 0.26 0.33 0.29 0.31 0.37 0.42 0.46 0.55 0.70 0.81 0.85 0.82 0.73 0.57 0.46 0.38 0.28 0.23 0.23 0.29 0.35 0.43 0.48 0.55 0.69 0.89 0.93 0.75 0.55 0.47 0.45 0.39 0.31 0.26 0.23 0.22 0.23 0.22
0.13 0.18 0.16 0.12 0.08 0.09 0.10 0.09 0.10 0.11 0.15 0.21 0.31 0.45 0.54 0.59 0.58 0.52 0.41 0.28 0.24 0.21 0.15 0.12 0.13 0.15 0.16 0.17 0.25 0.37 0.45 0.51 0.47 0.38 0.31 0.28 0.23 0.19 0.17 0.16 0.15 0.11 0.09 0.10
0.13 0.18 0.23 0.21 0.10 0.10 0.08 0.05 0.07 0.13 0.15 0.21 0.37 0.44 0.39 0.37 0.35 0.33 0.24 0.15 0.13 0.11 0.08 0.07 0.07 0.09 0.09 0.08 0.09 0.10 0.15 0.20 0.20 0.14 0.10 0.10 0.09 0.08 0.07 0.07 0.07 0.07 0.07 0.07
0.11 0.19 0.26 0.25 0.22 0.18 0.06 0.03 0.05 0.09 0.14 0.21 0.30 0.30 0.24 0.20 0.17 0.16 0.12 0.08 0.07 0.06 0.05 0.04 0.04 0.05 0.05 0.06 0.07 0.07 0.07 0.10 0.13 0.10 0.07 0.06 0.07 0.07 0.07 0.07 0.06 0.04 0.03 0.04
0.09 0.19 0.29 0.28 0.31 0.15 0.04 0.03 0.03 0.04 0.06 0.07 0.09 0.10 0.08 0.06 0.07 0.07 0.06 0.05 0.05 0.05 0.04 0.04 0.05 0.05 0.05 0.06 0.08 0.06 0.04 0.05 0.07 0.09 0.09 0.08 0.08 0.09 0.08 0.07 0.05 0.03 0.03 0.04
0.12 0.16 0.26 0.27 0.29 0.19 0.07 0.05 0.04 0.04 0.05 0.04 0.03 0.03 0.03 0.03 0.06 0.06 0.05 0.04 0.04 0.06 0.05 0.06 0.07 0.07 0.06 0.07 0.07 0.06 0.05 0.05 0.05 0.07 0.08 0.11 0.12 0.10 0.09 0.11 0.12 0.09 0.07 0.06
0.15 0.17 0.19 0.24 0.27 0.14 0.06 0.06 0.06 0.07 0.06 0.03 0.02 0.02 0.02 0.03 0.04 0.04 0.03 0.04 0.05 0.07 0.08 0.08 0.08 0.08 0.07 0.07 0.08 0.07 0.05 0.05 0.05 0.06 0.09 0.09 0.08 0.09 0.10 0.12 0.15 0.14 0.10 0.09
0.16 0.18 0.18 0.21 0.25 0.12 0.05 0.05 0.06 0.05 0.03 0.02 0.02 0.02 0.02 0.03 0.04 0.03 0.04 0.04 0.05 0.07 0.08 0.08 0.08 0.07 0.08 0.07 0.08 0.07 0.06 0.07 0.07 0.07 0.08 0.08 0.08 0.08 0.09 0.12 0.11 0.09 0.08 0.07
0.13 0.13 0.16 0.16 0.12 0.07 0.06 0.06 0.05 0.04 0.03 0.02 0.01 0.02 0.02 0.02 0.03 0.04 0.04 0.04 0.04 0.06 0.06 0.06 0.07 0.07 0.08 0.08 0.08 0.09 0.09 0.09 0.07 0.06 0.07 0.09 0.09 0.10 0.11 0.11 0.10 0.09 0.07 0.07
0.11 0.09 0.12 0.13 0.08 0.05 0.07 0.06 0.05 0.04 0.03 0.02 0.01 0.01 0.02 0.02 0.03 0.04 0.03 0.04 0.04 0.06 0.06 0.06 0.07 0.09 0.09 0.10 0.10 0.11 0.11 0.09 0.07 0.06 0.07 0.09 0.10 0.12 0.12 0.11 0.09 0.09 0.07 0.08
0.12 0.11 0.11 0.10 0.08 0.06 0.06 0.05 0.03 0.02 0.02 0.02 0.02 0.01 0.02 0.02 0.03 0.03 0.03 0.04 0.04 0.04 0.04 0.05 0.05 0.06 0.08 0.09 0.09 0.09 0.08 0.07 0.06 0.06 0.07 0.09 0.09 0.10 0.12 0.11 0.10 0.10 0.09 0.09
0.12 0.12 0.12 0.11 0.11 0.10 0.07 0.06 0.04 0.03 0.03 0.03 0.03 0.02 0.02 0.02 0.03 0.04 0.04 0.05 0.05 0.04 0.04 0.03 0.05 0.06 0.06 0.07 0.07 0.07 0.08 0.08 0.07 0.06 0.06 0.08 0.08 0.08 0.10 0.12 0.12 0.12 0.11 0.12

GEFSCGP_prec_meanprecacc_186.txt.gz
Total_Precipitation_Accumulation
0.52 0.70 0.72 0.63 0.66 0.74 0.65 0.60 0.69 0.73 0.63 0.76 0.70 0.52 0.43 0.39 0.36 0.37 0.43 0.44 0.39 0.29 0.18 0.11 0.10 0.13 0.18 0.18 0.17 0.19 0.24 0.31 0.30 0.26 0.33 0.44 0.54 0.68 0.81 0.98 1.05 1.29 1.39 1.30
0.60 0.51 0.38 0.43 0.48 0.59 0.60 0.62 0.66 0.64 0.57 0.65 0.71 0.57 0.44 0.35 0.31 0.32 0.33 0.35 0.34 0.24 0.15 0.10 0.07 0.08 0.09 0.11 0.10 0.12 0.16 0.25 0.33 0.36 0.41 0.53 0.71 0.83 0.93 1.07 1.14 1.26 1.28 1.28
0.44 0.36 0.31 0.36 0.41 0.53 0.54 0.61 0.58 0.60 0.65 0.59 0.67 0.73 0.55 0.38 0.33 0.33 0.31 0.31 0.29 0.20 0.16 0.13 0.10 0.09 0.07 0.08 0.08 0.13 0.21 0.34 0.50 0.66 0.88 1.13 1.41 1.53 1.43 1.29 1.37 1.49 1.56 1.53
0.54 0.37 0.32 0.37 0.40 0.46 0.61 0.42 0.40 0.48 0.69 0.70 0.58 0.76 0.57 0.39 0.38 0.39 0.35 0.29 0.25 0.22 0.19 0.15 0.12 0.11 0.11 0.15 0.22 0.31 0.42 0.58 0.74 0.95 1.17 1.43 1.68 1.84 1.86 1.87 1.92 1.89 1.85 1.75
0.59 0.37 0.34 0.39 0.35 0.37 0.49 0.41 0.39 0.45 0.61 0.59 0.52 0.54 0.47 0.40 0.46 0.48 0.46 0.39 0.34 0.32 0.29 0.27 0.23 0.21 0.22 0.33 0.45 0.56 0.77 0.93 1.07 1.14 1.23 1.46 1.57 1.64 1.75 1.89 1.95 1.94 1.87 1.76
0.47 0.33 0.32 0.33 0.29 0.31 0.41 0.47 0.50 0.56 0.63 0.58 0.40 0.40 0.49 0.43 0.48 0.56 0.53 0.46 0.41 0.37 0.34 0.35 0.38 0.38 0.41 0.62 0.84 0.98 1.08 1.17 1.16 1.14 1.16 1.30 1.44 1.54 1.62 1.76 1.81 1.75 1.63 1.59
0.45 0.38 0.30 0.29 0.34 0.32 0.39 0.56 0.66 0.68 0.62 0.45 0.25 0.31 0.42 0.35 0.33 0.41 0.44 0.41 0.37 0.30 0.28 0.32 0.41 0.53 0.71 0.95 1.16 1.31 1.30 1.20 1.05 1.03 1.10 1.15 1.31 1.48 1.53 1.53 1.52 1.49 1.42 1.37
0.36 0.42 0.28 0.25 0.27 0.30 0.33 0.41 0.58 0.64 0.52 0.36 0.28 0.42 0.46 0.35 0.26 0.23 0.23 0.26 0.30 0.33 0.39 0.40 0.45 0.63 0.91 1.16 1.39 1.66 1.64 1.40 1.18 1.12 1.18 1.20 1.28 1.37 1.36 1.28 1.28 1.30 1.25 1.19
0.27 0.28 0.24 0.25 0.25 0.25 0.30 0.31 0.32 0.47 0.40 0.34 0.29 0.36 0.35 0.24 0.19 0.18 0.22 0.26 0.35 0.40 0.49 0.58 0.68 0.76 0.96 1.18 1.51 1.79 1.84 1.64 1.47 1.39 1.33 1.33 1.24 1.17 1.08 0.99 0.98 1.02 1.03 0.95
0.24 0.27 0.26 0.25 0.28 0.25 0.25 0.26 0.29 0.48 0.53 0.47 0.35 0.37 0.31 0.20 0.16 0.18 0.29 0.35 0.41 0.48 0.50 0.65 0.90 1.10 1.32 1.26 1.40 1.63 1.57 1.50 1.48 1.49 1.48 1.37 1.22 1.09 1.04 0.97 0.95 0.91 0.95 0.87
0.18 0.28 0.31 0.29 0.25 0.22 0.22 0.25 0.27 0.36 0.39 0.50 0.57 0.50 0.29 0.25 0.26 0.31 0.40 0.43 0.49 0.56 0.59 0.72 0.88 1.03 1.20 1.30 1.31 1.36 1.35 1.35 1.31 1.24 1.20 1.08 0.88 0.77 0.77 0.79 0.75 0.70 0.72 0.68
0.14 0.25 0.31 0.25 0.19 0.20 0.24 0.27 0.29 0.45 0.47 0.47 0.66 0.69 0.40 0.38 0.43 0.51 0.59 0.63 0.67 0.68 0.71 0.81 0.87 1.00 1.07 1.07 1.11 1.19 1.13 1.11 1.06 0.95 0.85 0.74 0.60 0.54 0.58 0.60 0.55 0.48 0.49 0.46
0.17 0.28 0.37 0.35 0.29 0.27 0.39 0.44 0.33 0.31 0.45 0.57 0.76 0.76 0.56 0.56 0.63 0.73 0.83 0.84 0.79 0.73 0.71 0.75 0.78 0.86 0.91 0.95 1.01 1.10 1.04 1.05 1.03 0.89 0.73 0.65 0.59 0.56 0.56 0.50 0.44 0.35 0.33 0.36
0.16 0.26 0.26 0.28 0.26 0.28 0.45 0.51 0.40 0.37 0.53 0.57 0.61 0.70 0.73 0.83 0.85 0.87 0.87 0.83 0.72 0.61 0.52 0.48 0.46 0.54 0.59 0.65 0.74 0.84 0.82 1.00 1.14 1.07 0.86 0.74 0.68 0.58 0.49 0.40 0.37 0.32 0.35 0.39
0.15 0.22 0.19 0.11 0.10 0.14 0.26 0.33 0.29 0.32 0.37 0.43 0.46 0.55 0.70 0.81 0.85 0.82 0.73 0.57 0.47 0.38 0.29 0.24 0.23 0.30 0.35 0.44 0.48 0.55 0.69 0.90 0.93 0.76 0.56 0.48 0.46 0.42 0.33 0.28 0.25 0.25 0.25 0.24
0.13 0.18 0.16 0.12 0.08 0.09 0.11 0.10 0.10 0.11 0.15 0.21 0.31 0.46 0.54 0.59 0.58 0.53 0.42 0.29 0.24 0.21 0.15 0.12 0.13 0.16 0.16 0.17 0.25 0.37 0.45 0.51 0.48 0.40 0.33 0.30 0.26 0.21 0.18 0.17 0.15 0.13 0.12 0.11
0.14 0.19 0.24 0.21 0.10 0.10 0.09 0.05 0.07 0.13 0.15 0.22 0.37 0.44 0.39 0.37 0.35 0.34 0.25 0.16 0.14 0.11 0.08 0.07 0.08 0.10 0.09 0.08 0.09 0.10 0.15 0.21 0.21 0.15 0.11 0.13 0.13 0.10 0.08 0.08 0.08 0.08 0.08 0.08
0.12 0.20 0.27 0.26 0.23 0.18 0.06 0.03 0.05 0.09 0.14 0.21 0.30 0.30 0.24 0.20 0.17 0.16 0.12 0.09 0.08 0.06 0.05 0.04 0.04 0.05 0.06 0.07 0.07 0.07 0.07 0.10 0.14 0.11 0.07 0.08 0.11 0.10 0.10 0.11 0.10 0.07 0.05 0.07
0.10 0.20 0.31 0.30 0.32 0.16 0.04 0.03 0.03 0.04 0.06 0.08 0.10 0.10 0.08 0.06 0.07 0.08 0.06 0.05 0.05 0.05 0.04 0.05 0.05 0.05 0.05 0.07 0.08 0.07 0.05 0.05 0.08 0.09 0.09 0.08 0.10 0.12 0.11 0.10 0.08 0.06 0.06 0.07
0.12 0.17 0.27 0.28 0.30 0.20 0.07 0.05 0.04 0.04 0.06 0.04 0.03 0.03 0.03 0.03 0.07 0.07 0.05 0.04 0.04 0.06 0.06 0.07 0.07 0.07 0.07 0.08 0.08 0.07 0.05 0.05 0.05 0.07 0.09 0.11 0.12 0.11 0.11 0.13 0.14 0.11 0.09 0.09
0.16 0.18 0.20 0.25 0.29 0.14 0.06 0.06 0.06 0.08 0.07 0.03 0.02 0.02 0.02 0.03 0.05 0.04 0.04 0.04 0.05 0.08 0.09 0.08 0.09 0.09 0.08 0.08 0.08 0.08 0.06 0.05 0.06 0.07 0.09 0.09 0.09 0.09 0.11 0.14 0.17 0.16 0.13 0.11
0.18 0.19 0.19 0.22 0.26 0.13 0.05 0.05 0.06 0.05 0.04 0.03 0.02 0.02 0.02 0.04 0.04 0.03 0.04 0.04 0.05 0.07 0.09 0.09 0.09 0.08 0.09 0.08 0.08 0.07 0.06 0.07 0.07 0.08 0.09 0.08 0.08 0.09 0.11 0.13 0.13 0.11 0.10 0.10
0.15 0.15 0.17 0.17 0.13 0.08 0.07 0.07 0.05 0.04 0.03 0.02 0.02 0.02 0.02 0.02 0.04 0.04 0.04 0.04 0.04 0.06 0.07 0.08 0.08 0.09 0.09 0.10 0.09 0.10 0.09 0.10 0.08 0.06 0.08 0.10 0.11 0.12 0.13 0.13 0.11 0.10 0.09 0.09
0.13 0.11 0.14 0.14 0.08 0.06 0.07 0.06 0.05 0.04 0.03 0.02 0.01 0.02 0.02 0.02 0.03 0.04 0.03 0.04 0.05 0.06 0.06 0.08 0.09 0.10 0.10 0.11 0.11 0.12 0.12 0.10 0.08 0.06 0.08 0.10 0.12 0.15 0.15 0.12 0.11 0.10 0.09 0.10
0.13 0.12 0.12 0.11 0.08 0.06 0.06 0.05 0.03 0.02 0.03 0.03 0.02 0.02 0.02 0.02 0.03 0.03 0.03 0.04 0.04 0.04 0.04 0.06 0.07 0.07 0.09 0.10 0.09 0.10 0.09 0.08 0.07 0.06 0.09 0.11 0.11 0.12 0.13 0.12 0.11 0.11 0.10 0.11
0.13 0.13 0.14 0.12 0.11 0.10 0.08 0.06 0.04 0.03 0.03 0.03 0.03 0.03 0.03 0.03 0.03 0.04 0.05 0.06 0.05 0.05 0.04 0.04 0.05 0.07 0.07 0.08 0.07 0.07 0.08 0.08 0.08 0.07 0.08 0.10 0.10 0.09 0.10 0.13 0.12 0.13 0.13 0.14

GEFSCGP_prec_meanprecacc_192.txt.gz
Total_Precipitation_Accumulation
0.54 0.71 0.73 0.64 0.67 0.75 0.65 0.60 0.70 0.74 0.63 0.76 0.71 0.53 0.43 0.39 0.37 0.38 0.45 0.45 0.40 0.30 0.19 0.11 0.10 0.14 0.19 0.18 0.17 0.19 0.24 0.32 0.30 0.26 0.33 0.44 0.54 0.68 0.81 0.98 1.05 1.29 1.39 1.30
0.60 0.51 0.38 0.43 0.49 0.59 0.60 0.62 0.66 0.64 0.57 0.66 0.71 0.58 0.45 0.35 0.31 0.32 0.34 0.37 0.35 0.26 0.16 0.11 0.08 0.09 0.10 0.11 0.10 0.12 0.16 0.25 0.33 0.36 0.41 0.53 0.71 0.84 0.93 1.07 1.14 1.26 1.28 1.28
0.44 0.36 0.31 0.36 0.42 0.53 0.54 0.61 0.58 0.60 0.66 0.60 0.68 0.74 0.56 0.39 0.33 0.33 0.32 0.32 0.30 0.21 0.16 0.14 0.10 0.09 0.07 0.08 0.08 0.13 0.21 0.34 0.51 0.66 0.89 1.13 1.41 1.54 1.43 1.29 1.37 1.49 1.57 1.54
0.54 0.37 0.33 0.37 0.40 0.46 0.61 0.42 0.40 0.48 0.70 0.71 0.59 0.77 0.58 0.40 0.39 0.39 0.35 0.29 0.26 0.22 0.19 0.16 0.13 0.12 0.11 0.16 0.22 0.31 0.42 0.58 0.75 0.96 1.18 1.43 1.68 1.84 1.86 1.88 1.92 1.90 1.85 1.75
0.59 0.37 0.34 0.39 0.35 0.38 0.49 0.41 0.39 0.45 0.62 0.60 0.53 0.56 0.49 0.42 0.47 0.48 0.46 0.40 0.35 0.32 0.30 0.28 0.24 0.22 0.23 0.34 0.46 0.56 0.78 0.94 1.08 1.15 1.24 1.47 1.57 1.64 1.75 1.90 1.95 1.95 1.88 1.76
0.47 0.33 0.32 0.33 0.29 0.31 0.41 0.48 0.51 0.56 0.64 0.59 0.41 0.41 0.51 0.44 0.48 0.57 0.54 0.47 0.42 0.38 0.35 0.35 0.39 0.38 0.41 0.62 0.84 0.98 1.09 1.18 1.16 1.16 1.18 1.31 1.45 1.54 1.63 1.76 1.82 1.76 1.64 1.60
0.45 0.38 0.30 0.29 0.34 0.32 0.39 0.56 0.67 0.69 0.63 0.46 0.26 0.32 0.43 0.35 0.34 0.41 0.44 0.41 0.37 0.31 0.29 0.33 0.41 0.53 0.72 0.95 1.17 1.31 1.30 1.20 1.06 1.04 1.11 1.16 1.31 1.49 1.54 1.53 1.53 1.50 1.44 1.38
0.37 0.42 0.29 0.25 0.27 0.30 0.33 0.41 0.60 0.65 0.53 0.40 0.30 0.44 0.47 0.36 0.26 0.23 0.24 0.26 0.30 0.33 0.39 0.40 0.45 0.64 0.92 1.16 1.40 1.67 1.64 1.41 1.18 1.12 1.18 1.21 1.31 1.38 1.38 1.29 1.29 1.31 1.27 1.21
0.27 0.28 0.24 0.25 0.25 0.25 0.31 0.31 0.32 0.47 0.41 0.36 0.32 0.39 0.36 0.25 0.20 0.19 0.22 0.27 0.36 0.40 0.49 0.58 0.68 0.77 0.97 1.19 1.51 1.80 1.85 1.65 1.48 1.40 1.33 1.34 1.26 1.19 1.11 1.01 1.01 1.04 1.06 0.99
0.24 0.28 0.26 0.26 0.29 0.25 0.25 0.27 0.29 0.49 0.54 0.49 0.37 0.38 0.32 0.21 0.16 0.18 0.29 0.35 0.42 0.49 0.50 0.65 0.90 1.11 1.34 1.29 1.41 1.65 1.59 1.51 1.48 1.50 1.48 1.38 1.23 1.11 1.06 0.99 0.98 0.94 0.98 0.89
0.18 0.28 0.31 0.29 0.26 0.22 0.22 0.25 0.27 0.36 0.39 0.51 0.59 0.51 0.30 0.25 0.26 0.31 0.40 0.43 0.49 0.56 0.59 0.73 0.89 1.04 1.21 1.32 1.33 1.38 1.37 1.37 1.32 1.25 1.20 1.09 0.89 0.78 0.78 0.81 0.78 0.73 0.75 0.70
0.15 0.25 0.32 0.25 0.19 0.20 0.25 0.27 0.29 0.45 0.48 0.47 0.68 0.71 0.40 0.39 0.43 0.52 0.59 0.64 0.68 0.68 0.72 0.81 0.88 1.01 1.08 1.09 1.13 1.21 1.15 1.13 1.08 0.97 0.86 0.75 0.61 0.55 0.60 0.61 0.57 0.50 0.52 0.48
0.18 0.29 0.38 0.35 0.29 0.27 0.40 0.44 0.34 0.31 0.45 0.58 0.77 0.77 0.57 0.57 0.63 0.74 0.84 0.84 0.79 0.74 0.71 0.75 0.79 0.87 0.92 0.96 1.03 1.12 1.06 1.06 1.05 0.90 0.74 0.66 0.59 0.57 0.57 0.52 0.46 0.38 0.36 0.38
0.17 0.27 0.27 0.28 0.27 0.28 0.45 0.52 0.40 0.37 0.53 0.57 0.61 0.71 0.73 0.83 0.86 0.87 0.88 0.84 0.73 0.61 0.53 0.48 0.46 0.55 0.60 0.66 0.75 0.85 0.83 1.01 1.15 1.07 0.87 0.74 0.68 0.59 0.50 0.41 0.38 0.34 0.38 0.42
0.15 0.23 0.19 0.12 0.10 0.14 0.26 0.33 0.29 0.32 0.37 0.43 0.47 0.56 0.70 0.81 0.85 0.82 0.73 0.57 0.47 0.39 0.29 0.24 0.24 0.30 0.36 0.45 0.49 0.56 0.70 0.91 0.94 0.77 0.57 0.49 0.47 0.43 0.34 0.29 0.29 0.27 0.27 0.26
0.13 0.19 0.17 0.12 0.08 0.09 0.11 0.10 0.10 0.12 0.15 0.21 0.31 0.46 0.54 0.59 0.58 0.53 0.42 0.29 0.25 0.21 0.16 0.13 0.13 0.17 0.17 0.19 0.26 0.38 0.46 0.51 0.49 0.40 0.33 0.31 0.27 0.23 0.21 0.20 0.18 0.15 0.14 0.13
0.14 0.19 0.24 0.22 0.10 0.11 0.09 0.05 0.07 0.13 0.15 0.22 0.37 0.44 0.39 0.37 0.36 0.34 0.25 0.16 0.15 0.11 0.09 0.08 0.08 0.11 0.10 0.09 0.10 0.11 0.16 0.22 0.22 0.15 0.12 0.14 0.17 0.14 0.11 0.11 0.11 0.12 0.12 0.11
0.13 0.20 0.29 0.27 0.23 0.19 0.06 0.03 0.05 0.09 0.14 0.21 0.30 0.30 0.24 0.20 0.17 0.16 0.12 0.09 0.08 0.07 0.05 0.05 0.06 0.07 0.07 0.08 0.09 0.09 0.09 0.12 0.15 0.12 0.08 0.08 0.12 0.13 0.13 0.13 0.14 0.11 0.09 0.09
0.10 0.20 0.32 0.31 0.33 0.16 0.05 0.03 0.04 0.04 0.07 0.08 0.10 0.10 0.08 0.07 0.08 0.08 0.07 0.06 0.06 0.06 0.05 0.06 0.06 0.07 0.07 0.09 0.10 0.08 0.06 0.07 0.09 0.10 0.10 0.09 0.11 0.13 0.12 0.11 0.10 0.09 0.08 0.09
0.13 0.17 0.28 0.29 0.31 0.21 0.08 0.05 0.04 0.04 0.06 0.04 0.04 0.04 0.03 0.03 0.08 0.08 0.06 0.04 0.05 0.06 0.06 0.07 0.09 0.09 0.09 0.10 0.10 0.08 0.07 0.06 0.06 0.08 0.10 0.12 0.14 0.13 0.12 0.13 0.14 0.12 0.10 0.10
0.17 0.19 0.21 0.26 0.30 0.15 0.06 0.06 0.06 0.09 0.08 0.04 0.03 0.03 0.03 0.04 0.06 0.05 0.04 0.05 0.05 0.08 0.09 0.09 0.10 0.10 0.10 0.10 0.10 0.09 0.07 0.06 0.07 0.09 0.11 0.10 0.10 0.10 0.13 0.15 0.18 0.16 0.14 0.12
0.21 0.22 0.20 0.22 0.27 0.13 0.05 0.05 0.07 0.06 0.05 0.03 0.03 0.03 0.03 0.04 0.05 0.04 0.05 0.05 0.06 0.08 0.09 0.09 0.09 0.09 0.11 0.10 0.10 0.08 0.07 0.09 0.09 0.10 0.11 0.10 0.09 0.10 0.13 0.15 0.13 0.11 0.11 0.11
0.17 0.17 0.19 0.18 0.14 0.08 0.07 0.07 0.06 0.05 0.04 0.03 0.02 0.03 0.03 0.03 0.04 0.05 0.05 0.05 0.05 0.07 0.08 0.08 0.09 0.09 0.11 0.12 0.12 0.11 0.10 0.12 0.10 0.08 0.10 0.12 0.13 0.15 0.15 0.15 0.13 0.11 0.10 0.10
0.14 0.12 0.15 0.15 0.09 0.06 0.07 0.07 0.06 0.05 0.04 0.03 0.02 0.02 0.02 0.03 0.04 0.04 0.04 0.04 0.05 0.06 0.06 0.08 0.09 0.11 0.12 0.14 0.15 0.15 0.14 0.12 0.10 0.09 0.10 0.13 0.15 0.18 0.18 0.15 0.13 0.11 0.10 0.11
0.14 0.12 0.13 0.12 0.09 0.07 0.07 0.06 0.04 0.03 0.04 0.04 0.03 0.02 0.03 0.03 0.03 0.04 0.04 0.04 0.05 0.05 0.05 0.07 0.08 0.08 0.10 0.12 0.12 0.12 0.11 0.09 0.08 0.09 0.11 0.13 0.14 0.16 0.17 0.15 0.13 0.12 0.11 0.12
0.14 0.14 0.15 0.13 0.12 0.12 0.09 0.07 0.05 0.04 0.07 0.05 0.05 0.05 0.04 0.04 0.04 0.05 0.06 0.07 0.06 0.06 0.05 0.05 0.07 0.08 0.09 0.09 0.09 0.09 0.10 0.10 0.09 0.08 0.10 0.12 0.13 0.13 0.14 0.16 0.14 0.14 0.14 0.15

GEFSCGP_prec_meanprecacc_198.txt.gz
Total_Precipitation_Accumulation
0.54 0.71 0.73 0.64 0.68 0.75 0.65 0.60 0.70 0.74 0.63 0.76 0.71 0.53 0.43 0.40 0.37 0.39 0.45 0.45 0.40 0.30 0.19 0.11 0.10 0.14 0.19 0.18 0.17 0.19 0.25 0.32 0.30 0.27 0.33 0.45 0.54 0.68 0.82 0.99 1.05 1.30 1.41 1.31
0.60 0.51 0.38 0.43 0.49 0.59 0.60 0.63 0.66 0.64 0.57 0.66 0.72 0.58 0.45 0.36 0.32 0.33 0.35 0.37 0.35 0.26 0.16 0.11 0.08 0.09 0.10 0.11 0.10 0.13 0.16 0.26 0.33 0.36 0.41 0.54 0.71 0.84 0.94 1.08 1.15 1.26 1.29 1.29
0.44 0.36 0.31 0.37 0.42 0.54 0.54 0.61 0.58 0.61 0.66 0.60 0.68 0.74 0.56 0.39 0.34 0.34 0.32 0.33 0.31 0.22 0.17 0.14 0.11 0.10 0.07 0.08 0.08 0.13 0.21 0.34 0.51 0.67 0.89 1.14 1.42 1.54 1.44 1.30 1.37 1.49 1.57 1.54
0.54 0.37 0.33 0.37 0.41 0.47 0.62 0.42 0.40 0.48 0.70 0.71 0.59 0.77 0.58 0.40 0.39 0.39 0.35 0.30 0.26 0.23 0.20 0.16 0.13 0.12 0.11 0.16 0.22 0.31 0.43 0.58 0.76 0.96 1.18 1.45 1.69 1.85 1.86 1.88 1.92 1.90 1.86 1.76
0.59 0.37 0.34 0.39 0.36 0.38 0.50 0.42 0.39 0.45 0.62 0.60 0.54 0.56 0.49 0.42 0.48 0.49 0.46 0.40 0.35 0.33 0.30 0.28 0.25 0.22 0.23 0.34 0.46 0.56 0.78 0.94 1.08 1.15 1.25 1.47 1.58 1.65 1.76 1.90 1.95 1.95 1.88 1.77
0.48 0.33 0.32 0.33 0.29 0.31 0.41 0.48 0.51 0.57 0.64 0.59 0.41 0.42 0.51 0.44 0.48 0.57 0.54 0.47 0.42 0.38 0.35 0.36 0.39 0.39 0.42 0.63 0.85 0.99 1.09 1.18 1.17 1.16 1.18 1.31 1.45 1.54 1.63 1.76 1.82 1.76 1.64 1.60
0.45 0.38 0.30 0.29 0.34 0.32 0.39 0.57 0.68 0.70 0.63 0.47 0.27 0.32 0.43 0.36 0.34 0.41 0.44 0.41 0.37 0.31 0.29 0.33 0.41 0.54 0.72 0.96 1.17 1.31 1.31 1.20 1.06 1.04 1.11 1.17 1.32 1.49 1.54 1.54 1.53 1.51 1.44 1.38
0.37 0.42 0.29 0.25 0.27 0.30 0.33 0.41 0.60 0.65 0.53 0.40 0.31 0.44 0.48 0.36 0.26 0.23 0.24 0.26 0.30 0.34 0.40 0.41 0.46 0.64 0.92 1.17 1.41 1.67 1.65 1.41 1.19 1.12 1.19 1.22 1.32 1.39 1.39 1.30 1.29 1.32 1.27 1.21
0.28 0.28 0.24 0.25 0.25 0.25 0.31 0.31 0.32 0.47 0.41 0.36 0.33 0.39 0.37 0.25 0.20 0.19 0.22 0.27 0.36 0.40 0.50 0.59 0.69 0.78 0.98 1.20 1.52 1.80 1.86 1.65 1.48 1.40 1.34 1.34 1.26 1.19 1.12 1.03 1.02 1.05 1.07 1.00
0.24 0.28 0.26 0.26 0.29 0.25 0.25 0.27 0.29 0.49 0.54 0.49 0.37 0.39 0.32 0.21 0.16 0.18 0.29 0.35 0.42 0.49 0.51 0.66 0.91 1.11 1.35 1.30 1.42 1.66 1.59 1.52 1.49 1.51 1.49 1.39 1.24 1.12 1.08 1.00 1.00 0.95 0.99 0.90
0.18 0.28 0.31 0.29 0.26 0.22 0.22 0.25 0.27 0.36 0.39 0.52 0.59 0.51 0.30 0.25 0.26 0.31 0.40 0.44 0.49 0.56 0.59 0.73 0.89 1.04 1.23 1.33 1.34 1.39 1.37 1.37 1.33 1.26 1.22 1.10 0.90 0.79 0.80 0.82 0.80 0.75 0.77 0.71
0.16 0.26 0.32 0.25 0.19 0.20 0.25 0.27 0.29 0.46 0.48 0.47 0.68 0.71 0.40 0.39 0.44 0.52 0.59 0.64 0.68 0.68 0.72 0.81 0.89 1.01 1.09 1.10 1.13 1.22 1.15 1.13 1.09 0.98 0.87 0.76 0.62 0.57 0.61 0.63 0.59 0.52 0.53 0.49
0.19 0.31 0.39 0.36 0.29 0.27 0.40 0.44 0.34 0.32 0.45 0.58 0.77 0.77 0.57 0.57 0.63 0.74 0.84 0.84 0.79 0.74 0.71 0.76 0.79 0.88 0.93 0.97 1.03 1.12 1.06 1.07 1.05 0.91 0.75 0.67 0.60 0.58 0.58 0.53 0.48 0.40 0.38 0.40
0.18 0.28 0.29 0.29 0.27 0.28 0.45 0.52 0.41 0.38 0.54 0.57 0.61 0.71 0.73 0.83 0.86 0.87 0.88 0.84 0.73 0.61 0.53 0.48 0.47 0.56 0.61 0.66 0.76 0.86 0.84 1.01 1.16 1.08 0.87 0.75 0.69 0.59 0.51 0.42 0.40 0.35 0.40 0.44
0.16 0.24 0.20 0.12 0.10 0.15 0.27 0.33 0.30 0.32 0.37 0.43 0.47 0.56 0.70 0.81 0.85 0.82 0.73 0.57 0.47 0.39 0.29 0.24 0.24 0.31 0.36 0.45 0.49 0.57 0.71 0.91 0.95 0.77 0.57 0.49 0.47 0.43 0.34 0.30 0.29 0.29 0.29 0.27
0.15 0.20 0.17 0.12 0.08 0.09 0.11 0.10 0.10 0.12 0.15 0.22 0.31 0.46 0.55 0.59 0.58 0.53 0.42 0.29 0.25 0.21 0.16 0.13 0.14 0.17 0.17 0.19 0.27 0.39 0.47 0.52 0.49 0.40 0.33 0.31 0.28 0.23 0.21 0.20 0.18 0.16 0.15 0.14
0.16 0.21 0.25 0.22 0.10 0.11 0.09 0.05 0.07 0.13 0.15 0.22 0.37 0.45 0.39 0.37 0.36 0.34 0.25 0.16 0.15 0.12 0.09 0.08 0.09 0.11 0.10 0.10 0.11 0.12 0.16 0.23 0.23 0.16 0.12 0.15 0.17 0.14 0.12 0.11 0.12 0.12 0.12 0.11
0.13 0.21 0.30 0.28 0.24 0.19 0.07 0.03 0.05 0.09 0.14 0.21 0.31 0.30 0.24 0.20 0.17 0.16 0.12 0.10 0.09 0.08 0.06 0.05 0.06 0.08 0.07 0.09 0.10 0.10 0.09 0.12 0.16 0.12 0.08 0.09 0.12 0.13 0.13 0.14 0.14 0.12 0.09 0.10
0.10 0.21 0.33 0.32 0.34 0.16 0.05 0.04 0.04 0.05 0.07 0.08 0.10 0.10 0.09 0.07 0.08 0.09 0.07 0.07 0.06 0.06 0.05 0.06 0.07 0.07 0.08 0.10 0.12 0.09 0.07 0.07 0.10 0.11 0.11 0.09 0.12 0.13 0.12 0.11 0.11 0.09 0.09 0.10
0.13 0.18 0.29 0.31 0.32 0.21 0.08 0.05 0.04 0.05 0.07 0.05 0.04 0.04 0.04 0.04 0.08 0.08 0.06 0.05 0.05 0.07 0.06 0.07 0.09 0.10 0.10 0.11 0.11 0.09 0.08 0.07 0.07 0.09 0.11 0.13 0.15 0.13 0.12 0.14 0.15 0.13 0.11 0.11
0.18 0.20 0.22 0.27 0.30 0.15 0.06 0.06 0.06 0.09 0.08 0.05 0.04 0.04 0.04 0.06 0.07 0.06 0.05 0.06 0.06 0.09 0.10 0.09 0.11 0.11 0.11 0.11 0.11 0.09 0.07 0.07 0.09 0.10 0.12 0.11 0.11 0.12 0.13 0.15 0.18 0.17 0.14 0.12
0.22 0.23 0.21 0.23 0.27 0.14 0.05 0.05 0.07 0.07 0.05 0.04 0.04 0.04 0.04 0.05 0.06 0.05 0.06 0.06 0.06 0.08 0.10 0.09 0.10 0.09 0.11 0.10 0.10 0.08 0.08 0.10 0.10 0.11 0.13 0.12 0.11 0.13 0.15 0.16 0.14 0.13 0.12 0.12
0.18 0.18 0.19 0.19 0.14 0.08 0.07 0.07 0.06 0.05 0.05 0.03 0.03 0.04 0.04 0.03 0.04 0.05 0.05 0.05 0.06 0.07 0.08 0.08 0.09 0.09 0.11 0.13 0.12 0.12 0.11 0.13 0.11 0.09 0.11 0.13 0.15 0.17 0.18 0.18 0.15 0.14 0.12 0.12
0.14 0.13 0.16 0.15 0.09 0.06 0.07 0.07 0.06 0.05 0.04 0.04 0.03 0.03 0.03 0.03 0.04 0.04 0.04 0.04 0.05 0.06 0.07 0.08 0.10 0.11 0.12 0.14 0.15 0.15 0.15 0.13 0.11 0.10 0.11 0.14 0.17 0.19 0.20 0.18 0.15 0.13 0.12 0.13
0.15 0.13 0.13 0.12 0.09 0.07 0.07 0.06 0.05 0.03 0.05 0.04 0.04 0.03 0.03 0.03 0.03 0.04 0.04 0.05 0.05 0.05 0.05 0.07 0.08 0.08 0.11 0.13 0.13 0.13 0.12 0.10 0.09 0.09 0.12 0.15 0.16 0.18 0.20 0.18 0.16 0.14 0.14 0.14
0.15 0.15 0.15 0.13 0.12 0.12 0.09 0.07 0.05 0.05 0.08 0.06 0.06 0.06 0.05 0.04 0.04 0.05 0.06 0.07 0.07 0.06 0.05 0.06 0.07 0.08 0.09 0.09 0.09 0.10 0.11 0.11 0.10 0.09 0.11 0.14 0.15 0.16 0.17 0.19 0.18 0.17 0.17 0.17

GEFSCGP_prec_meanprecacc_204.txt.gz
Total_Precipitation_Accumulation
0.54 0.71 0.74 0.65 0.68 0.75 0.65 0.61 0.70 0.74 0.63 0.77 0.71 0.53 0.43 0.40 0.38 0.39 0.45 0.46 0.41 0.31 0.19 0.12 0.11 0.15 0.19 0.18 0.17 0.19 0.25 0.32 0.31 0.27 0.34 0.46 0.55 0.69 0.84 1.01 1.07 1.31 1.42 1.32
0.60 0.51 0.38 0.44 0.50 0.60 0.61 0.63 0.67 0.64 0.57 0.66 0.72 0.58 0.45 0.36 0.32 0.33 0.35 0.38 0.37 0.27 0.17 0.12 0.08 0.09 0.10 0.12 0.10 0.13 0.17 0.26 0.33 0.36 0.42 0.54 0.72 0.85 0.95 1.09 1.15 1.27 1.29 1.30
0.44 0.36 0.32 0.37 0.42 0.54 0.55 0.62 0.58 0.61 0.66 0.60 0.69 0.74 0.56 0.39 0.34 0.34 0.32 0.33 0.31 0.22 0.18 0.15 0.11 0.10 0.08 0.08 0.09 0.13 0.21 0.34 0.51 0.67 0.89 1.15 1.43 1.56 1.46 1.32 1.38 1.49 1.57 1.55
0.55 0.37 0.33 0.38 0.41 0.47 0.63 0.43 0.40 0.48 0.70 0.71 0.59 0.77 0.58 0.40 0.39 0.39 0.35 0.30 0.26 0.23 0.20 0.16 0.13 0.12 0.12 0.16 0.23 0.32 0.43 0.58 0.76 0.96 1.19 1.45 1.70 1.86 1.87 1.89 1.93 1.90 1.86 1.77
0.59 0.38 0.35 0.40 0.36 0.38 0.50 0.42 0.39 0.45 0.62 0.60 0.54 0.56 0.50 0.42 0.48 0.49 0.46 0.40 0.35 0.33 0.30 0.28 0.25 0.23 0.23 0.34 0.47 0.57 0.78 0.94 1.08 1.15 1.25 1.47 1.58 1.65 1.76 1.90 1.96 1.95 1.89 1.78
0.48 0.33 0.32 0.33 0.30 0.31 0.41 0.48 0.51 0.57 0.65 0.60 0.41 0.42 0.51 0.44 0.48 0.57 0.54 0.47 0.42 0.38 0.35 0.36 0.40 0.39 0.42 0.63 0.85 0.99 1.09 1.18 1.17 1.16 1.18 1.31 1.45 1.55 1.63 1.77 1.83 1.77 1.65 1.61
0.45 0.38 0.30 0.29 0.34 0.33 0.39 0.57 0.69 0.71 0.65 0.47 0.27 0.32 0.43 0.36 0.34 0.41 0.44 0.41 0.37 0.31 0.29 0.34 0.42 0.54 0.72 0.96 1.17 1.31 1.31 1.20 1.06 1.04 1.11 1.17 1.32 1.49 1.54 1.54 1.54 1.53 1.46 1.39
0.37 0.42 0.29 0.25 0.27 0.30 0.33 0.42 0.61 0.65 0.54 0.41 0.31 0.44 0.48 0.36 0.26 0.23 0.24 0.26 0.30 0.34 0.40 0.41 0.46 0.64 0.93 1.17 1.41 1.67 1.65 1.41 1.19 1.13 1.19 1.22 1.32 1.39 1.39 1.30 1.30 1.33 1.29 1.23
0.28 0.29 0.24 0.25 0.25 0.25 0.31 0.31 0.32 0.48 0.41 0.37 0.33 0.39 0.37 0.26 0.20 0.19 0.22 0.27 0.36 0.41 0.50 0.59 0.69 0.78 0.98 1.20 1.53 1.81 1.86 1.65 1.48 1.40 1.34 1.34 1.27 1.20 1.12 1.03 1.02 1.06 1.08 1.01
0.25 0.28 0.26 0.26 0.29 0.25 0.25 0.27 0.29 0.49 0.54 0.50 0.37 0.39 0.32 0.21 0.16 0.18 0.29 0.35 0.42 0.49 0.51 0.66 0.91 1.12 1.35 1.30 1.42 1.66 1.60 1.52 1.49 1.51 1.49 1.39 1.24 1.13 1.08 1.01 1.00 0.96 1.00 0.92
0.19 0.28 0.31 0.29 0.26 0.22 0.22 0.25 0.27 0.36 0.40 0.52 0.59 0.51 0.30 0.25 0.26 0.31 0.40 0.44 0.49 0.56 0.59 0.73 0.90 1.05 1.23 1.33 1.34 1.39 1.37 1.38 1.34 1.27 1.22 1.10 0.90 0.79 0.80 0.83 0.81 0.75 0.77 0.72
0.16 0.26 0.32 0.25 0.19 0.20 0.25 0.27 0.29 0.46 0.48 0.48 0.68 0.71 0.40 0.39 0.44 0.52 0.59 0.64 0.68 0.68 0.72 0.81 0.89 1.02 1.09 1.10 1.14 1.22 1.15 1.13 1.09 0.98 0.88 0.76 0.62 0.57 0.61 0.63 0.60 0.52 0.53 0.49
0.19 0.31 0.40 0.36 0.29 0.27 0.40 0.44 0.34 0.32 0.45 0.58 0.77 0.77 0.57 0.57 0.63 0.74 0.84 0.85 0.80 0.74 0.71 0.76 0.79 0.88 0.93 0.97 1.03 1.12 1.07 1.07 1.05 0.91 0.75 0.67 0.61 0.59 0.58 0.53 0.48 0.40 0.38 0.40
0.18 0.28 0.29 0.30 0.27 0.28 0.45 0.52 0.41 0.38 0.54 0.57 0.62 0.71 0.73 0.83 0.86 0.87 0.88 0.84 0.73 0.62 0.53 0.48 0.47 0.56 0.61 0.66 0.76 0.86 0.84 1.01 1.16 1.08 0.88 0.76 0.70 0.60 0.51 0.42 0.40 0.36 0.40 0.44
0.17 0.25 0.20 0.12 0.10 0.15 0.27 0.34 0.30 0.32 0.37 0.43 0.47 0.56 0.70 0.81 0.85 0.82 0.73 0.57 0.48 0.40 0.30 0.24 0.24 0.31 0.36 0.45 0.50 0.58 0.71 0.91 0.95 0.78 0.57 0.50 0.48 0.44 0.35 0.30 0.30 0.29 0.29 0.27
0.16 0.21 0.18 0.13 0.08 0.09 0.11 0.10 0.10 0.12 0.15 0.22 0.31 0.46 0.55 0.59 0.58 0.53 0.42 0.29 0.25 0.22 0.16 0.13 0.14 0.17 0.18 0.20 0.27 0.39 0.47 0.53 0.50 0.41 0.34 0.31 0.28 0.24 0.22 0.20 0.19 0.16 0.15 0.14
0.17 0.22 0.26 0.23 0.10 0.11 0.10 0.05 0.07 0.13 0.15 0.22 0.37 0.45 0.39 0.37 0.36 0.34 0.25 0.16 0.15 0.12 0.10 0.08 0.09 0.12 0.11 0.10 0.11 0.13 0.17 0.23 0.23 0.16 0.13 0.15 0.17 0.14 0.12 0.11 0.12 0.13 0.13 0.11
0.14 0.22 0.31 0.29 0.24 0.20 0.07 0.03 0.05 0.09 0.14 0.21 0.31 0.30 0.24 0.20 0.17 0.17 0.12 0.10 0.09 0.08 0.06 0.06 0.06 0.08 0.08 0.10 0.11 0.10 0.10 0.13 0.17 0.13 0.09 0.09 0.13 0.13 0.13 0.14 0.15 0.12 0.10 0.10
0.11 0.21 0.34 0.33 0.34 0.17 0.05 0.04 0.04 0.05 0.07 0.08 0.10 0.10 0.09 0.07 0.08 0.09 0.08 0.07 0.07 0.06 0.06 0.06 0.07 0.08 0.08 0.11 0.12 0.09 0.07 0.08 0.11 0.11 0.11 0.10 0.12 0.13 0.12 0.12 0.11 0.10 0.09 0.10
0.13 0.18 0.29 0.31 0.33 0.21 0.08 0.05 0.04 0.05 0.07 0.05 0.04 0.04 0.04 0.04 0.09 0.09 0.07 0.05 0.06 0.07 0.06 0.07 0.09 0.11 0.10 0.11 0.11 0.09 0.08 0.07 0.07 0.10 0.12 0.14 0.15 0.13 0.12 0.14 0.15 0.13 0.11 0.11
0.18 0.20 0.22 0.27 0.31 0.15 0.06 0.06 0.06 0.09 0.08 0.05 0.04 0.04 0.04 0.06 0.07 0.06 0.05 0.06 0.06 0.09 0.10 0.09 0.11 0.11 0.11 0.11 0.11 0.09 0.07 0.07 0.09 0.10 0.12 0.12 0.12 0.12 0.14 0.16 0.19 0.18 0.15 0.13
0.22 0.24 0.21 0.24 0.28 0.14 0.05 0.06 0.07 0.07 0.05 0.04 0.04 0.04 0.04 0.05 0.06 0.05 0.06 0.06 0.06 0.08 0.10 0.10 0.10 0.09 0.11 0.11 0.10 0.09 0.08 0.10 0.11 0.11 0.13 0.12 0.11 0.14 0.16 0.17 0.15 0.13 0.13 0.12
0.18 0.18 0.20 0.19 0.15 0.08 0.07 0.07 0.07 0.05 0.05 0.03 0.03 0.04 0.04 0.03 0.04 0.05 0.05 0.05 0.06 0.07 0.08 0.08 0.09 0.10 0.11 0.13 0.12 0.12 0.12 0.13 0.11 0.10 0.12 0.14 0.15 0.17 0.19 0.18 0.16 0.15 0.13 0.13
0.15 0.13 0.16 0.15 0.09 0.06 0.08 0.07 0.06 0.05 0.05 0.04 0.03 0.03 0.04 0.03 0.04 0.04 0.04 0.04 0.05 0.07 0.07 0.09 0.10 0.11 0.12 0.15 0.16 0.16 0.16 0.13 0.11 0.10 0.12 0.15 0.17 0.20 0.21 0.20 0.17 0.15 0.14 0.15
0.15 0.14 0.14 0.13 0.09 0.07 0.07 0.06 0.05 0.03 0.05 0.04 0.04 0.03 0.04 0.04 0.04 0.04 0.04 0.05 0.05 0.05 0.05 0.07 0.08 0.09 0.11 0.13 0.13 0.13 0.12 0.11 0.10 0.10 0.13 0.16 0.17 0.19 0.21 0.20 0.19 0.18 0.17 0.17
0.15 0.15 0.16 0.14 0.12 0.12 0.09 0.07 0.05 0.05 0.08 0.06 0.06 0.06 0.05 0.05 0.04 0.05 0.07 0.08 0.07 0.06 0.06 0.06 0.08 0.09 0.09 0.10 0.09 0.10 0.11 0.11 0.10 0.09 0.11 0.14 0.16 0.18 0.19 0.21 0.21 0.22 0.20 0.20

GEFSCGP_prec_meanprecacc_210.txt.gz
Total_Precipitation_Accumulation
0.54 0.71 0.74 0.66 0.68 0.75 0.66 0.62 0.72 0.75 0.64 0.77 0.72 0.53 0.43 0.40 0.38 0.40 0.46 0.46 0.42 0.32 0.21 0.14 0.12 0.17 0.22 0.21 0.20 0.24 0.26 0.32 0.31 0.28 0.35 0.49 0.61 0.73 0.87 1.03 1.08 1.31 1.43 1.34
0.61 0.51 0.38 0.44 0.50 0.60 0.62 0.63 0.67 0.65 0.58 0.66 0.72 0.58 0.45 0.36 0.32 0.33 0.35 0.38 0.37 0.28 0.17 0.13 0.10 0.11 0.15 0.19 0.14 0.16 0.18 0.26 0.33 0.36 0.42 0.56 0.75 0.87 0.97 1.12 1.17 1.27 1.30 1.31
0.44 0.36 0.32 0.37 0.42 0.54 0.56 0.63 0.59 0.61 0.67 0.61 0.69 0.75 0.57 0.39 0.34 0.34 0.33 0.33 0.31 0.23 0.18 0.15 0.12 0.11 0.10 0.14 0.11 0.14 0.22 0.34 0.51 0.67 0.89 1.15 1.45 1.58 1.49 1.35 1.41 1.50 1.58 1.55
0.55 0.38 0.33 0.38 0.41 0.47 0.63 0.43 0.40 0.49 0.71 0.72 0.60 0.79 0.58 0.40 0.39 0.39 0.35 0.30 0.26 0.23 0.20 0.17 0.15 0.13 0.13 0.18 0.24 0.32 0.43 0.58 0.76 0.96 1.19 1.45 1.71 1.89 1.90 1.91 1.94 1.91 1.87 1.77
0.59 0.38 0.35 0.40 0.36 0.38 0.51 0.42 0.40 0.46 0.63 0.61 0.55 0.58 0.51 0.42 0.48 0.49 0.46 0.40 0.35 0.33 0.31 0.29 0.27 0.25 0.24 0.35 0.47 0.57 0.78 0.94 1.08 1.15 1.25 1.47 1.58 1.66 1.77 1.92 1.97 1.96 1.90 1.78
0.48 0.34 0.32 0.33 0.30 0.32 0.42 0.49 0.52 0.57 0.65 0.61 0.42 0.43 0.52 0.44 0.48 0.57 0.54 0.47 0.42 0.38 0.35 0.37 0.40 0.40 0.42 0.64 0.86 0.99 1.09 1.18 1.17 1.16 1.18 1.31 1.45 1.55 1.65 1.81 1.86 1.80 1.68 1.63
0.45 0.38 0.30 0.29 0.34 0.33 0.40 0.59 0.71 0.73 0.67 0.48 0.28 0.34 0.44 0.36 0.34 0.41 0.44 0.41 0.37 0.31 0.29 0.34 0.42 0.54 0.73 0.97 1.18 1.31 1.31 1.21 1.07 1.04 1.11 1.17 1.32 1.49 1.55 1.56 1.57 1.56 1.48 1.42
0.37 0.43 0.29 0.25 0.28 0.30 0.34 0.43 0.63 0.69 0.57 0.42 0.31 0.45 0.48 0.36 0.26 0.23 0.24 0.26 0.31 0.34 0.40 0.41 0.46 0.64 0.93 1.18 1.42 1.67 1.65 1.41 1.19 1.13 1.19 1.22 1.32 1.40 1.40 1.31 1.32 1.34 1.30 1.24
0.28 0.29 0.24 0.25 0.25 0.25 0.31 0.32 0.33 0.50 0.43 0.39 0.34 0.40 0.37 0.26 0.20 0.19 0.22 0.27 0.36 0.41 0.50 0.59 0.69 0.78 0.99 1.21 1.54 1.81 1.86 1.65 1.49 1.40 1.34 1.35 1.27 1.20 1.13 1.04 1.04 1.06 1.09 1.02
0.25 0.28 0.27 0.26 0.29 0.25 0.25 0.27 0.30 0.51 0.57 0.52 0.38 0.40 0.33 0.22 0.16 0.18 0.29 0.35 0.42 0.49 0.51 0.66 0.91 1.12 1.36 1.30 1.44 1.68 1.61 1.53 1.49 1.51 1.49 1.39 1.25 1.13 1.08 1.01 1.01 0.97 1.01 0.93
0.19 0.29 0.32 0.29 0.26 0.23 0.23 0.25 0.27 0.37 0.40 0.54 0.62 0.53 0.30 0.26 0.26 0.32 0.41 0.44 0.49 0.56 0.59 0.73 0.90 1.05 1.23 1.34 1.35 1.39 1.38 1.38 1.34 1.27 1.22 1.10 0.90 0.79 0.80 0.83 0.81 0.75 0.77 0.73
0.17 0.27 0.32 0.25 0.19 0.20 0.26 0.28 0.29 0.46 0.48 0.48 0.69 0.72 0.40 0.39 0.44 0.52 0.59 0.64 0.68 0.68 0.72 0.81 0.89 1.02 1.09 1.10 1.14 1.22 1.15 1.14 1.09 0.99 0.88 0.76 0.62 0.57 0.61 0.64 0.60 0.52 0.53 0.49
0.19 0.32 0.40 0.37 0.30 0.28 0.40 0.45 0.35 0.32 0.46 0.58 0.77 0.78 0.57 0.57 0.63 0.74 0.84 0.85 0.80 0.74 0.71 0.76 0.79 0.88 0.93 0.97 1.04 1.13 1.07 1.07 1.06 0.91 0.75 0.67 0.61 0.59 0.58 0.53 0.48 0.40 0.38 0.40
0.19 0.29 0.29 0.30 0.27 0.28 0.46 0.52 0.41 0.38 0.54 0.58 0.62 0.71 0.73 0.84 0.86 0.88 0.88 0.84 0.73 0.62 0.53 0.48 0.47 0.56 0.61 0.66 0.76 0.87 0.84 1.02 1.16 1.08 0.88 0.76 0.70 0.60 0.51 0.42 0.40 0.36 0.40 0.44
0.18 0.25 0.20 0.12 0.10 0.15 0.27 0.34 0.30 0.32 0.37 0.43 0.47 0.56 0.71 0.81 0.85 0.83 0.73 0.58 0.48 0.40 0.30 0.25 0.24 0.31 0.36 0.45 0.50 0.58 0.71 0.92 0.96 0.78 0.58 0.51 0.48 0.44 0.35 0.30 0.30 0.29 0.29 0.27
0.16 0.21 0.18 0.13 0.08 0.10 0.11 0.10 0.10 0.12 0.15 0.22 0.31 0.46 0.55 0.59 0.59 0.54 0.42 0.29 0.25 0.22 0.17 0.14 0.14 0.17 0.18 0.20 0.27 0.39 0.47 0.53 0.50 0.41 0.34 0.32 0.28 0.24 0.22 0.21 0.20 0.17 0.16 0.14
0.17 0.22 0.27 0.23 0.10 0.12 0.10 0.05 0.07 0.13 0.15 0.22 0.37 0.45 0.39 0.37 0.36 0.35 0.25 0.16 0.15 0.12 0.10 0.08 0.09 0.12 0.11 0.11 0.12 0.13 0.17 0.23 0.23 0.16 0.13 0.15 0.18 0.15 0.12 0.12 0.13 0.14 0.13 0.12
0.14 0.23 0.32 0.29 0.24 0.21 0.07 0.03 0.05 0.09 0.14 0.22 0.31 0.30 0.24 0.20 0.17 0.17 0.13 0.10 0.09 0.08 0.07 0.06 0.06 0.08 0.08 0.10 0.11 0.11 0.10 0.13 0.17 0.13 0.10 0.10 0.13 0.14 0.14 0.15 0.15 0.13 0.10 0.11
0.11 0.22 0.35 0.33 0.35 0.17 0.05 0.04 0.04 0.05 0.07 0.08 0.10 0.11 0.09 0.07 0.08 0.09 0.08 0.07 0.07 0.07 0.06 0.06 0.07 0.08 0.08 0.11 0.12 0.10 0.07 0.08 0.11 0.12 0.12 0.10 0.12 0.13 0.12 0.12 0.12 0.10 0.10 0.11
0.13 0.19 0.31 0.32 0.34 0.22 0.08 0.05 0.04 0.05 0.07 0.05 0.04 0.04 0.04 0.04 0.09 0.09 0.07 0.06 0.06 0.07 0.07 0.08 0.09 0.11 0.10 0.11 0.11 0.09 0.08 0.07 0.07 0.10 0.12 0.14 0.15 0.14 0.12 0.14 0.15 0.13 0.12 0.12
0.19 0.21 0.23 0.28 0.32 0.15 0.06 0.06 0.06 0.09 0.09 0.05 0.04 0.04 0.04 0.06 0.08 0.07 0.06 0.06 0.07 0.09 0.10 0.10 0.11 0.11 0.11 0.11 0.11 0.10 0.08 0.08 0.09 0.10 0.13 0.12 0.12 0.12 0.14 0.16 0.19 0.18 0.15 0.13
0.23 0.24 0.22 0.25 0.29 0.15 0.05 0.06 0.07 0.07 0.05 0.04 0.04 0.04 0.04 0.05 0.06 0.05 0.06 0.06 0.06 0.09 0.11 0.10 0.10 0.10 0.11 0.11 0.10 0.09 0.08 0.10 0.11 0.11 0.13 0.12 0.12 0.14 0.16 0.17 0.15 0.14 0.13 0.13
0.18 0.19 0.20 0.20 0.15 0.09 0.08 0.08 0.07 0.05 0.05 0.04 0.03 0.04 0.04 0.03 0.04 0.05 0.05 0.05 0.06 0.08 0.09 0.09 0.09 0.10 0.11 0.13 0.13 0.13 0.12 0.14 0.11 0.10 0.12 0.14 0.16 0.18 0.19 0.19 0.16 0.15 0.14 0.14
0.15 0.13 0.16 0.16 0.09 0.06 0.08 0.07 0.06 0.05 0.05 0.04 0.03 0.03 0.04 0.03 0.04 0.04 0.04 0.04 0.06 0.07 0.08 0.09 0.10 0.12 0.13 0.15 0.17 0.17 0.16 0.14 0.12 0.11 0.12 0.15 0.18 0.20 0.21 0.20 0.17 0.15 0.15 0.16
0.16 0.14 0.14 0.13 0.09 0.08 0.07 0.07 0.05 0.03 0.05 0.04 0.04 0.03 0.04 0.04 0.04 0.04 0.04 0.05 0.05 0.06 0.06 0.07 0.09 0.10 0.12 0.14 0.14 0.14 0.13 0.12 0.10 0.11 0.14 0.17 0.19 0.21 0.22 0.20 0.19 0.18 0.17 0.19
0.15 0.15 0.16 0.14 0.12 0.12 0.10 0.08 0.06 0.05 0.08 0.06 0.07 0.06 0.05 0.05 0.04 0.05 0.07 0.08 0.07 0.06 0.06 0.06 0.08 0.10 0.10 0.11 0.10 0.11 0.12 0.12 0.11 0.11 0.13 0.16 0.18 0.19 0.20 0.22 0.22 0.23 0.22 0.22

GEFSCGP_prec_meanprecacc_216.txt.gz
Total_Precipitation_Accumulation
0.54 0.72 0.75 0.67 0.68 0.76 0.66 0.62 0.73 0.76 0.64 0.77 0.72 0.53 0.43 0.40 0.38 0.40 0.46 0.48 0.44 0.33 0.22 0.14 0.13 0.18 0.24 0.22 0.21 0.27 0.30 0.36 0.35 0.31 0.37 0.50 0.61 0.74 0.87 1.04 1.09 1.32 1.44 1.35
0.62 0.53 0.39 0.44 0.50 0.60 0.62 0.64 0.69 0.65 0.58 0.66 0.72 0.58 0.45 0.36 0.32 0.33 0.36 0.39 0.38 0.29 0.19 0.14 0.11 0.13 0.18 0.21 0.15 0.17 0.21 0.29 0.36 0.38 0.44 0.58 0.76 0.87 0.98 1.13 1.19 1.29 1.32 1.32
0.45 0.37 0.32 0.37 0.42 0.55 0.56 0.63 0.59 0.62 0.67 0.61 0.70 0.75 0.57 0.39 0.34 0.34 0.33 0.34 0.32 0.23 0.19 0.16 0.13 0.12 0.11 0.15 0.12 0.15 0.23 0.35 0.52 0.68 0.90 1.16 1.45 1.59 1.50 1.37 1.43 1.53 1.61 1.57
0.55 0.38 0.33 0.38 0.42 0.48 0.64 0.43 0.41 0.50 0.72 0.73 0.61 0.80 0.58 0.40 0.39 0.40 0.36 0.30 0.27 0.23 0.21 0.17 0.15 0.14 0.13 0.19 0.24 0.33 0.44 0.60 0.76 0.96 1.19 1.45 1.71 1.89 1.91 1.92 1.97 1.94 1.89 1.78
0.59 0.38 0.35 0.40 0.36 0.39 0.51 0.43 0.41 0.46 0.64 0.62 0.56 0.59 0.51 0.42 0.48 0.49 0.46 0.40 0.36 0.33 0.31 0.30 0.27 0.25 0.25 0.35 0.48 0.59 0.80 0.96 1.09 1.16 1.25 1.47 1.58 1.66 1.78 1.92 1.99 2.00 1.92 1.80
0.48 0.34 0.32 0.33 0.30 0.32 0.42 0.50 0.53 0.58 0.66 0.62 0.43 0.44 0.53 0.44 0.48 0.57 0.54 0.47 0.42 0.38 0.36 0.37 0.41 0.40 0.43 0.64 0.87 1.00 1.10 1.19 1.18 1.16 1.18 1.31 1.46 1.55 1.65 1.81 1.87 1.81 1.69 1.65
0.46 0.38 0.30 0.29 0.34 0.34 0.40 0.60 0.75 0.76 0.68 0.49 0.28 0.34 0.45 0.36 0.34 0.42 0.45 0.42 0.38 0.31 0.30 0.34 0.42 0.55 0.73 0.98 1.19 1.31 1.31 1.21 1.07 1.04 1.11 1.17 1.32 1.49 1.55 1.56 1.57 1.57 1.50 1.43
0.38 0.43 0.29 0.25 0.28 0.31 0.35 0.44 0.65 0.71 0.59 0.43 0.32 0.46 0.49 0.36 0.27 0.24 0.24 0.26 0.31 0.34 0.40 0.41 0.46 0.65 0.93 1.18 1.42 1.68 1.65 1.41 1.19 1.13 1.19 1.22 1.32 1.40 1.40 1.31 1.32 1.35 1.31 1.25
0.28 0.30 0.25 0.25 0.25 0.25 0.31 0.33 0.34 0.51 0.44 0.39 0.35 0.41 0.37 0.26 0.20 0.19 0.22 0.27 0.36 0.41 0.50 0.59 0.69 0.78 1.00 1.22 1.54 1.82 1.86 1.65 1.49 1.40 1.34 1.35 1.27 1.20 1.13 1.04 1.04 1.06 1.09 1.02
0.25 0.29 0.28 0.26 0.29 0.25 0.25 0.27 0.30 0.51 0.58 0.54 0.40 0.41 0.34 0.22 0.17 0.19 0.30 0.35 0.42 0.50 0.52 0.66 0.91 1.12 1.36 1.31 1.44 1.68 1.61 1.53 1.50 1.51 1.49 1.39 1.25 1.13 1.09 1.02 1.01 0.97 1.01 0.94
0.19 0.29 0.32 0.30 0.26 0.23 0.23 0.26 0.28 0.38 0.41 0.56 0.64 0.54 0.31 0.27 0.27 0.32 0.41 0.44 0.49 0.56 0.60 0.74 0.90 1.05 1.24 1.34 1.35 1.40 1.38 1.38 1.35 1.27 1.22 1.10 0.90 0.80 0.81 0.83 0.81 0.75 0.78 0.74
0.17 0.27 0.32 0.26 0.19 0.21 0.26 0.28 0.30 0.48 0.50 0.50 0.71 0.73 0.41 0.40 0.44 0.53 0.60 0.64 0.68 0.69 0.73 0.82 0.90 1.03 1.10 1.11 1.14 1.22 1.16 1.14 1.09 0.99 0.89 0.76 0.63 0.57 0.62 0.64 0.60 0.52 0.53 0.50
0.19 0.32 0.40 0.37 0.30 0.28 0.41 0.45 0.35 0.33 0.47 0.59 0.78 0.78 0.57 0.57 0.63 0.75 0.85 0.86 0.81 0.75 0.72 0.77 0.81 0.90 0.94 0.98 1.04 1.13 1.07 1.07 1.06 0.91 0.76 0.68 0.61 0.59 0.58 0.53 0.48 0.40 0.38 0.40
0.19 0.29 0.29 0.30 0.27 0.28 0.46 0.53 0.42 0.39 0.55 0.58 0.62 0.71 0.74 0.84 0.86 0.88 0.89 0.86 0.75 0.64 0.55 0.50 0.49 0.58 0.63 0.68 0.77 0.87 0.85 1.03 1.17 1.08 0.88 0.76 0.70 0.61 0.51 0.42 0.40 0.36 0.40 0.44
0.18 0.25 0.20 0.12 0.11 0.15 0.28 0.34 0.31 0.33 0.38 0.43 0.47 0.56 0.71 0.82 0.86 0.83 0.74 0.59 0.50 0.42 0.32 0.27 0.27 0.33 0.38 0.47 0.52 0.59 0.73 0.94 0.97 0.79 0.58 0.51 0.49 0.45 0.35 0.31 0.30 0.29 0.29 0.28
0.17 0.22 0.19 0.13 0.09 0.10 0.12 0.10 0.11 0.13 0.16 0.22 0.32 0.46 0.55 0.59 0.59 0.54 0.43 0.30 0.27 0.24 0.19 0.15 0.16 0.20 0.22 0.23 0.30 0.41 0.49 0.54 0.52 0.43 0.36 0.33 0.29 0.25 0.23 0.22 0.20 0.17 0.16 0.15
0.17 0.22 0.28 0.24 0.11 0.12 0.11 0.05 0.09 0.15 0.16 0.23 0.38 0.45 0.39 0.37 0.36 0.35 0.25 0.16 0.16 0.13 0.11 0.10 0.10 0.13 0.13 0.14 0.15 0.16 0.20 0.26 0.25 0.19 0.15 0.17 0.19 0.16 0.14 0.13 0.13 0.14 0.14 0.12
0.15 0.23 0.32 0.30 0.25 0.21 0.08 0.04 0.05 0.10 0.14 0.22 0.31 0.30 0.24 0.21 0.18 0.17 0.13 0.10 0.10 0.09 0.07 0.07 0.07 0.09 0.09 0.11 0.13 0.14 0.12 0.15 0.19 0.16 0.12 0.12 0.15 0.15 0.16 0.16 0.17 0.13 0.11 0.11
0.11 0.23 0.35 0.34 0.36 0.18 0.05 0.04 0.04 0.05 0.07 0.08 0.10 0.11 0.09 0.07 0.08 0.10 0.08 0.08 0.08 0.07 0.06 0.07 0.08 0.09 0.09 0.12 0.13 0.11 0.09 0.10 0.12 0.14 0.14 0.13 0.14 0.15 0.14 0.14 0.13 0.12 0.10 0.11
0.14 0.19 0.31 0.33 0.34 0.22 0.08 0.05 0.05 0.05 0.07 0.05 0.04 0.04 0.04 0.04 0.09 0.10 0.07 0.06 0.07 0.08 0.07 0.08 0.10 0.13 0.12 0.12 0.12 0.10 0.09 0.09 0.09 0.12 0.13 0.16 0.16 0.15 0.13 0.15 0.16 0.14 0.12 0.12
0.19 0.22 0.23 0.29 0.33 0.16 0.07 0.06 0.07 0.10 0.09 0.05 0.04 0.04 0.04 0.06 0.08 0.07 0.06 0.07 0.07 0.10 0.11 0.11 0.13 0.13 0.13 0.12 0.12 0.11 0.09 0.09 0.11 0.12 0.14 0.13 0.13 0.13 0.15 0.17 0.20 0.19 0.16 0.14
0.23 0.25 0.22 0.25 0.30 0.15 0.05 0.06 0.08 0.07 0.05 0.04 0.04 0.04 0.04 0.05 0.06 0.05 0.06 0.06 0.06 0.09 0.11 0.11 0.13 0.11 0.12 0.11 0.11 0.10 0.09 0.12 0.13 0.13 0.14 0.13 0.13 0.15 0.17 0.17 0.16 0.15 0.14 0.14
0.19 0.19 0.21 0.20 0.15 0.09 0.08 0.08 0.07 0.06 0.05 0.04 0.04 0.04 0.04 0.03 0.04 0.05 0.05 0.05 0.06 0.08 0.09 0.10 0.11 0.12 0.13 0.14 0.13 0.13 0.13 0.14 0.12 0.11 0.13 0.15 0.17 0.19 0.20 0.19 0.16 0.16 0.14 0.14
0.16 0.14 0.17 0.16 0.09 0.06 0.08 0.08 0.06 0.06 0.05 0.04 0.03 0.03 0.04 0.04 0.04 0.04 0.04 0.04 0.06 0.07 0.08 0.10 0.12 0.13 0.14 0.17 0.18 0.18 0.17 0.15 0.13 0.12 0.14 0.17 0.19 0.22 0.22 0.20 0.18 0.16 0.15 0.17
0.16 0.14 0.15 0.13 0.09 0.08 0.07 0.07 0.05 0.04 0.05 0.05 0.04 0.04 0.04 0.04 0.04 0.04 0.04 0.05 0.06 0.06 0.06 0.08 0.10 0.11 0.14 0.15 0.16 0.15 0.14 0.13 0.12 0.14 0.16 0.19 0.21 0.22 0.23 0.21 0.20 0.20 0.19 0.20
0.15 0.16 0.17 0.15 0.13 0.13 0.10 0.08 0.06 0.06 0.08 0.06 0.07 0.06 0.06 0.05 0.04 0.05 0.07 0.08 0.08 0.07 0.07 0.07 0.10 0.12 0.12 0.12 0.11 0.11 0.13 0.12 0.12 0.14 0.15 0.18 0.20 0.21 0.22 0.24 0.25 0.25 0.24 0.24

GEFSCGP_prec_meanprecacc_222.txt.gz
Total_Precipitation_Accumulation
0.54 0.73 0.75 0.67 0.69 0.76 0.67 0.62 0.74 0.76 0.64 0.77 0.72 0.53 0.43 0.40 0.38 0.40 0.46 0.48 0.44 0.33 0.22 0.15 0.13 0.19 0.24 0.23 0.21 0.27 0.31 0.37 0.36 0.32 0.37 0.51 0.63 0.75 0.88 1.05 1.10 1.32 1.44 1.36
0.62 0.53 0.39 0.44 0.50 0.60 0.62 0.64 0.69 0.65 0.58 0.66 0.72 0.58 0.45 0.36 0.32 0.33 0.36 0.39 0.38 0.30 0.20 0.14 0.11 0.13 0.18 0.21 0.16 0.18 0.21 0.30 0.37 0.39 0.45 0.58 0.77 0.89 0.99 1.14 1.20 1.29 1.32 1.33
0.45 0.37 0.32 0.37 0.43 0.55 0.56 0.63 0.59 0.62 0.67 0.61 0.70 0.75 0.57 0.39 0.34 0.34 0.33 0.34 0.32 0.23 0.19 0.16 0.14 0.12 0.11 0.15 0.12 0.15 0.23 0.36 0.53 0.68 0.92 1.17 1.46 1.60 1.50 1.37 1.44 1.53 1.62 1.58
0.55 0.38 0.33 0.38 0.42 0.48 0.64 0.43 0.41 0.50 0.72 0.74 0.61 0.80 0.59 0.40 0.39 0.40 0.36 0.30 0.27 0.23 0.21 0.18 0.15 0.14 0.13 0.19 0.25 0.34 0.45 0.61 0.78 0.98 1.20 1.46 1.71 1.90 1.91 1.93 1.97 1.95 1.90 1.79
0.59 0.38 0.35 0.40 0.36 0.39 0.51 0.43 0.41 0.47 0.64 0.62 0.56 0.59 0.51 0.42 0.48 0.49 0.47 0.41 0.36 0.33 0.31 0.30 0.28 0.25 0.25 0.36 0.49 0.59 0.81 0.97 1.11 1.17 1.26 1.48 1.58 1.66 1.78 1.92 1.99 2.00 1.92 1.80
0.48 0.34 0.32 0.34 0.30 0.32 0.42 0.50 0.53 0.58 0.66 0.62 0.43 0.44 0.53 0.44 0.48 0.58 0.54 0.47 0.42 0.38 0.36 0.38 0.41 0.41 0.44 0.65 0.88 1.00 1.10 1.20 1.19 1.17 1.19 1.31 1.46 1.55 1.65 1.81 1.87 1.82 1.69 1.65
0.46 0.39 0.30 0.29 0.35 0.34 0.40 0.60 0.75 0.76 0.68 0.49 0.28 0.34 0.45 0.36 0.34 0.42 0.45 0.42 0.38 0.31 0.30 0.35 0.43 0.55 0.74 0.98 1.19 1.32 1.31 1.22 1.07 1.05 1.12 1.17 1.32 1.49 1.55 1.56 1.58 1.57 1.50 1.43
0.38 0.44 0.29 0.25 0.28 0.31 0.35 0.44 0.65 0.71 0.60 0.43 0.32 0.46 0.49 0.36 0.27 0.24 0.24 0.26 0.31 0.34 0.40 0.42 0.47 0.65 0.94 1.19 1.42 1.68 1.65 1.42 1.20 1.14 1.19 1.22 1.32 1.40 1.40 1.31 1.32 1.35 1.31 1.25
0.28 0.30 0.25 0.26 0.26 0.25 0.31 0.33 0.34 0.51 0.44 0.40 0.35 0.41 0.37 0.26 0.20 0.19 0.22 0.27 0.36 0.42 0.51 0.59 0.69 0.78 1.00 1.22 1.54 1.82 1.87 1.66 1.49 1.41 1.34 1.35 1.27 1.20 1.13 1.04 1.04 1.06 1.09 1.02
0.25 0.29 0.28 0.27 0.30 0.26 0.25 0.27 0.30 0.52 0.58 0.54 0.40 0.41 0.34 0.22 0.17 0.19 0.30 0.35 0.42 0.50 0.52 0.67 0.91 1.12 1.36 1.31 1.44 1.68 1.62 1.53 1.50 1.51 1.49 1.39 1.25 1.13 1.09 1.02 1.01 0.97 1.01 0.94
0.19 0.29 0.32 0.30 0.27 0.23 0.23 0.26 0.28 0.38 0.41 0.56 0.64 0.54 0.31 0.27 0.27 0.32 0.41 0.44 0.49 0.56 0.60 0.74 0.91 1.06 1.24 1.35 1.35 1.40 1.39 1.39 1.35 1.28 1.22 1.10 0.90 0.80 0.81 0.83 0.81 0.75 0.78 0.74
0.18 0.27 0.32 0.26 0.20 0.21 0.26 0.29 0.31 0.48 0.50 0.50 0.71 0.73 0.41 0.40 0.44 0.53 0.60 0.64 0.68 0.69 0.73 0.83 0.90 1.04 1.11 1.12 1.15 1.23 1.16 1.14 1.10 1.00 0.90 0.77 0.63 0.58 0.62 0.64 0.60 0.52 0.54 0.50
0.20 0.32 0.40 0.37 0.30 0.28 0.41 0.46 0.36 0.33 0.47 0.59 0.78 0.78 0.57 0.57 0.64 0.75 0.85 0.86 0.81 0.75 0.72 0.78 0.82 0.91 0.96 1.00 1.06 1.14 1.08 1.08 1.06 0.92 0.77 0.69 0.62 0.60 0.59 0.53 0.48 0.40 0.38 0.41
0.20 0.29 0.29 0.30 0.27 0.29 0.47 0.53 0.42 0.40 0.55 0.58 0.62 0.72 0.74 0.84 0.86 0.88 0.89 0.86 0.76 0.64 0.55 0.51 0.49 0.59 0.64 0.69 0.78 0.88 0.85 1.03 1.17 1.09 0.89 0.77 0.71 0.61 0.52 0.42 0.40 0.36 0.41 0.45
0.19 0.26 0.21 0.13 0.11 0.15 0.28 0.35 0.31 0.34 0.38 0.44 0.47 0.56 0.71 0.82 0.86 0.83 0.74 0.59 0.50 0.43 0.33 0.27 0.27 0.34 0.39 0.49 0.53 0.61 0.73 0.94 0.98 0.80 0.59 0.52 0.50 0.46 0.37 0.32 0.31 0.30 0.30 0.28
0.17 0.22 0.19 0.14 0.09 0.11 0.12 0.11 0.11 0.13 0.17 0.22 0.32 0.46 0.55 0.60 0.59 0.54 0.43 0.30 0.27 0.24 0.19 0.16 0.17 0.22 0.23 0.25 0.32 0.43 0.50 0.55 0.53 0.45 0.38 0.34 0.31 0.27 0.25 0.24 0.22 0.19 0.17 0.15
0.18 0.23 0.29 0.24 0.11 0.12 0.11 0.05 0.09 0.15 0.16 0.23 0.38 0.45 0.39 0.37 0.36 0.35 0.26 0.17 0.16 0.13 0.12 0.10 0.11 0.14 0.14 0.15 0.17 0.17 0.21 0.27 0.26 0.20 0.18 0.19 0.20 0.17 0.15 0.15 0.16 0.17 0.16 0.13
0.15 0.24 0.33 0.30 0.25 0.22 0.08 0.04 0.06 0.10 0.15 0.22 0.31 0.30 0.24 0.21 0.18 0.17 0.13 0.10 0.10 0.09 0.08 0.08 0.08 0.10 0.10 0.12 0.14 0.15 0.14 0.16 0.20 0.16 0.13 0.13 0.15 0.16 0.17 0.18 0.18 0.15 0.13 0.12
0.11 0.23 0.36 0.35 0.36 0.18 0.05 0.04 0.04 0.05 0.07 0.08 0.10 0.11 0.09 0.07 0.09 0.10 0.08 0.08 0.08 0.07 0.06 0.07 0.08 0.10 0.11 0.13 0.15 0.13 0.11 0.11 0.13 0.14 0.14 0.13 0.15 0.16 0.15 0.15 0.15 0.13 0.12 0.12
0.14 0.20 0.31 0.34 0.35 0.23 0.08 0.05 0.05 0.05 0.07 0.05 0.04 0.04 0.04 0.04 0.09 0.10 0.08 0.06 0.07 0.08 0.07 0.08 0.10 0.13 0.13 0.14 0.14 0.12 0.11 0.10 0.10 0.12 0.14 0.16 0.17 0.15 0.14 0.16 0.18 0.15 0.13 0.13
0.19 0.22 0.24 0.29 0.33 0.16 0.07 0.06 0.07 0.10 0.09 0.05 0.04 0.04 0.04 0.06 0.08 0.07 0.06 0.07 0.07 0.10 0.11 0.11 0.13 0.13 0.13 0.14 0.15 0.13 0.11 0.10 0.12 0.13 0.14 0.14 0.14 0.14 0.16 0.18 0.21 0.20 0.17 0.15
0.24 0.25 0.23 0.25 0.30 0.15 0.06 0.06 0.08 0.08 0.05 0.04 0.04 0.04 0.04 0.05 0.06 0.05 0.06 0.06 0.07 0.09 0.11 0.12 0.13 0.11 0.12 0.12 0.12 0.11 0.10 0.13 0.13 0.13 0.14 0.13 0.13 0.15 0.18 0.19 0.17 0.15 0.14 0.14
0.19 0.19 0.21 0.20 0.15 0.09 0.08 0.08 0.07 0.06 0.05 0.04 0.04 0.04 0.04 0.04 0.04 0.05 0.05 0.05 0.06 0.08 0.09 0.10 0.11 0.12 0.13 0.15 0.14 0.15 0.13 0.15 0.13 0.12 0.14 0.16 0.17 0.19 0.20 0.20 0.18 0.17 0.15 0.15
0.16 0.15 0.18 0.16 0.09 0.07 0.08 0.08 0.07 0.06 0.06 0.05 0.03 0.03 0.04 0.04 0.05 0.04 0.04 0.05 0.06 0.08 0.08 0.10 0.12 0.14 0.15 0.18 0.19 0.19 0.17 0.15 0.14 0.13 0.15 0.18 0.20 0.22 0.23 0.21 0.19 0.18 0.17 0.19
0.17 0.15 0.15 0.14 0.10 0.08 0.08 0.07 0.06 0.05 0.06 0.06 0.04 0.04 0.04 0.04 0.04 0.04 0.04 0.05 0.06 0.06 0.06 0.08 0.10 0.12 0.15 0.16 0.16 0.16 0.14 0.13 0.12 0.14 0.16 0.20 0.21 0.23 0.24 0.23 0.22 0.22 0.21 0.22
0.16 0.16 0.17 0.16 0.14 0.14 0.10 0.09 0.07 0.07 0.09 0.07 0.07 0.06 0.06 0.05 0.05 0.06 0.07 0.09 0.08 0.07 0.07 0.07 0.10 0.12 0.13 0.13 0.12 0.12 0.13 0.13 0.12 0.14 0.16 0.18 0.21 0.22 0.23 0.26 0.26 0.27 0.26 0.26